Regional Weather Roundup
Issued by NWS

Home | Current Version | Previous Version | Text Only | Print | Product List | Glossary On
Versions: 1 2 3 4 5 6 7 8 9 10 11 12 13 14 15 16 17 18 19 20 21 22 23 24 25 26 27 28
000
ASUS45 KSLC 232110
RWRUT

UTAH REGIONAL WEATHER ROUNDUP
NATIONAL WEATHER SERVICE SALT LAKE CITY UT
300 PM MDT THU OCT 23 2014

UTZ001>011-023>025-232200-

NORTHERN UTAH

CITY           SKY/WX    TMP DP  RH WIND       PRES   REMARKS
BRIGHAM CITY     N/A     66  27  22 CALM      30.10F
HILL AFB         N/A     69  33  26 VRB1      30.10F
LOGAN          SUNNY     65  32  29 N6        30.10F
OGDEN            N/A     69  32  25 VRB5      30.09F
PROVO AIRPORT  MOSUNNY   72  34  25 CALM      30.09F
SALT LAKE CITY PTSUNNY   70  36  28 N9        30.06F
VERNAL         SUNNY     62  37  39 E5        30.17F
WENDOVER         N/A     61  30  31 SE7       30.08F
HEBER CITY       N/A     72  23  16 SW17G24   30.11F
WEST JORDAN    SUNNY     72  43  35 S13G18    30.09F

$$

UTZ012>022-026-027-232200-

SOUTHERN/CENTRAL UTAH

CITY           SKY/WX    TMP DP  RH WIND       PRES   REMARKS
BLANDING         N/A     68  32  26 S5        30.32F
BRYCE CANYON     N/A     62  29  28 SE15G21   30.31F
CEDAR CITY       N/A     73  22  14 SW17G25   30.17F
DELTA            N/A     76  27  16 SW18G24   30.09F
HANKSVILLE       N/A     72  32  23 SE3       30.16F
MILFORD          N/A     74  26  16 S20       30.13F
MOAB/CYNLANDS  SUNNY     72  35  25 SE5       30.14F
PRICE            N/A     66  31  27 MISG      30.22F
ST GEORGE        N/A     73  34  23 CALM      30.10F

$$

REGIONAL REPORTS     COLORADO/ARIZONA

CITY           SKY/WX    TMP DP  RH WIND       PRES   REMARKS
CRAIG, CO      SUNNY     69  32  25 W13       30.19F
GRAND JUNCTION SUNNY     70  38  31 NW6       30.18F
RIFLE          SUNNY     67  36  31 W9        30.20F
MONTROSE       SUNNY     71  34  25 N6        30.23F
CORTEZ         SUNNY     70  35  27 W5        30.25F
PAGE, AZ         N/A     74  31  20 E5        30.16F
GRAND CANYON     N/A     70  30  22 SW8       30.29F
KINGMAN          N/A     82  34  17 SW7       30.10F
FLAGSTAFF        N/A     68  33  27 S6G17     30.31F

$$

REGIONAL REPORTS    NEVADA/IDAHO/WYOMING

CITY           SKY/WX    TMP DP  RH WIND       PRES   REMARKS
LAS VEGAS, NV    N/A     83  34  17 SE6       29.98F
ELY              N/A     71  20  14 S16       30.15F
ELKO             N/A     72  20  14 SW9       30.05F
POCATELLO, ID  PTSUNNY   63  30  28 W14       30.09F
BURLEY           N/A     62  34  35 NW8       30.06F
EVANSTON, WY   MOSUNNY   66  22  18 W24G31    30.18F
ROCK SPRINGS   MOSUNNY   63  25  23 W10       30.16F
KEMMERER       PTSUNNY   61  23  23 W22G29    30.18F

$$



USA.gov is the U.S. government's official web portal to all federal, state and local government web resources and services.